Weather History for Centralia, IL

Change the Weather History Date:

Wednesday, September 3, 2014

  Actual Average (KSLO) Record (KSLO)
Temperature  
Mean Temperature 71 °F -  
Max Temperature 83 °F 84 °F 98 °F (2011)
Min Temperature 59 °F 61 °F 48 °F (1974)
Cooling Degree Days 6    
Growing Degree Days 21 (Base 50)    
Moisture  
Dew Point 65 °F    
Average Humidity 78    
Maximum Humidity 94    
Minimum Humidity 57    
Precipitation  
Precipitation 0.00 in - - ()
Sea Level Pressure  
Sea Level Pressure 30.03 in    
Wind  
Wind Speed 2 mph (SSE)    
Max Wind Speed 8 mph    
Max Gust Speed -    
Visibility 7 miles    
Events Fog    
Averages and records for this station are not official NWS values.
T = Trace of Precipitation, MM = Missing Value Source: NWS Daily Summary

Daily Weather History Graph

Daily Weather History Graph

Search for Another Location

Airport:

Trip Planner

Search our weather history database for the weather conditions in past years. The results will help you decide how hot, cold, wet, or windy it might be!

Date:

Astronomy

Sep. 03, 2014 Rise Set
Actual Time 6:27 AM CDT 7:23 PM CDT
Civil Twilight 6:00 AM CDT 7:50 PM CDT
Nautical Twilight 5:28 AM CDT 8:22 PM CDT
Astronomical Twilight 4:54 AM CDT 8:55 PM CDT
Moon 3:02 PM CDT (9/3) 12:23 AM CDT (9/3)
Length of Visible Light 13h 49m
Length of Day
12h 55m
Waxing Gibbous, 64% of the Moon is Illuminated
Sep 3
Waxing Gibbous
Sep 8
Full
Sep 15
Last Quarter
Sep 24
New
Oct 1
First Quarter

Hourly Weather History & Observations

Time (CDT) Temp. Heat Index Dew Point Humidity Pressure Visibility Wind Dir Wind Speed Gust Speed Precip Events Conditions
12:10 AM 66.2 °F - 64.2 °F 93% 30.03 in 4.0 mi Calm Calm - N/A   Clear
12:30 AM 64.9 °F - 63.0 °F 93% 30.02 in 1.0 mi Calm Calm - N/A   Mist
12:50 AM 65.1 °F - 63.1 °F 93% 30.02 in 1.0 mi Calm Calm - N/A   Mist
1:10 AM 63.1 °F - 61.2 °F 93% 30.02 in 1.2 mi Calm Calm - N/A   Mist
1:30 AM 62.8 °F - 60.8 °F 93% 30.02 in 0.5 mi Calm Calm - N/A Fog Fog
1:50 AM 62.8 °F - 61.0 °F 94% 30.01 in 0.8 mi Calm Calm - N/A   Scattered Clouds
2:10 AM 62.1 °F - 60.3 °F 94% 30.00 in 0.5 mi Calm Calm - N/A Fog Fog
2:30 AM 62.6 °F - 60.8 °F 94% 30.00 in 0.2 mi SE 3.5 mph - N/A Fog Fog
2:50 AM 61.7 °F - 59.9 °F 94% 30.00 in 0.5 mi Calm Calm - N/A Fog Fog
3:10 AM 61.0 °F - 59.2 °F 94% 30.00 in 0.2 mi Calm Calm - N/A Fog Fog
3:30 AM 61.7 °F - 59.9 °F 94% 30.01 in 0.2 mi Calm Calm - N/A Fog Fog
3:50 AM 60.4 °F - 58.6 °F 94% 30.01 in 0.2 mi Calm Calm - N/A Fog Fog
4:10 AM 61.0 °F - 59.2 °F 94% 30.01 in 1.0 mi Calm Calm - N/A   Overcast
4:30 AM 60.8 °F - 59.0 °F 94% 30.02 in 0.8 mi Calm Calm - N/A   Overcast
4:50 AM 60.6 °F - 58.8 °F 94% 30.01 in 0.5 mi Calm Calm - N/A Fog Fog
5:10 AM 59.5 °F - 57.7 °F 94% 30.02 in 0.2 mi Calm Calm - N/A Fog Fog
5:30 AM 59.4 °F - 57.6 °F 94% 30.02 in 1.0 mi Calm Calm - N/A   Mostly Cloudy
6:10 AM 59.4 °F - 57.7 °F 94% 30.05 in 0.5 mi Calm Calm - N/A Fog Fog
6:30 AM 59.5 °F - 57.7 °F 94% 30.05 in 1.0 mi Calm Calm - N/A   Mostly Cloudy
6:50 AM 59.9 °F - 58.1 °F 94% 30.05 in 0.8 mi ESE 3.5 mph - N/A   Mostly Cloudy
7:10 AM 62.2 °F - 60.4 °F 94% 30.05 in 0.8 mi Calm Calm - N/A   Mostly Cloudy
7:30 AM 64.0 °F - 62.2 °F 94% 30.05 in 5.0 mi Calm Calm - N/A   Clear
7:50 AM 66.6 °F - 64.8 °F 94% 30.06 in 5.0 mi Calm Calm - N/A   Clear
8:10 AM 69.6 °F - 67.6 °F 93% 30.06 in 7.0 mi Calm Calm - N/A   Clear
8:30 AM 71.6 °F - 68.2 °F 89% 30.06 in 10.0 mi Calm Calm - N/A   Clear
8:50 AM 73.6 °F - 68.7 °F 85% 30.05 in 10.0 mi East 3.5 mph - N/A   Clear
9:10 AM 74.5 °F - 68.4 °F 81% 30.06 in 10.0 mi SE 3.5 mph - N/A   Clear
9:30 AM 75.4 °F - 68.2 °F 78% 30.07 in 10.0 mi SE 3.5 mph - N/A   Clear
9:50 AM 76.6 °F - 67.1 °F 72% 30.07 in 10.0 mi Calm Calm - N/A   Clear
10:10 AM 78.1 °F - 66.6 °F 68% 30.08 in 10.0 mi Calm Calm - N/A   Clear
10:30 AM 79.0 °F - 66.0 °F 64% 30.08 in 10.0 mi Calm Calm - N/A   Clear
10:50 AM 79.5 °F - 65.3 °F 62% 30.07 in 10.0 mi SSE 3.5 mph - N/A   Scattered Clouds
11:10 AM 79.9 °F - 66.4 °F 63% 30.07 in 10.0 mi South 5.8 mph - N/A   Scattered Clouds
11:30 AM 80.1 °F 81.9 °F 65.1 °F 60% 30.06 in 10.0 mi South 3.5 mph - N/A   Scattered Clouds
12:10 PM 80.6 °F 82.8 °F 66.4 °F 62% 30.05 in 10.0 mi Calm Calm - N/A   Clear
12:30 PM 81.9 °F 84.1 °F 66.0 °F 59% 30.05 in 10.0 mi SSW 3.5 mph - N/A   Scattered Clouds
12:50 PM 81.9 °F 83.7 °F 65.3 °F 57% 30.05 in 10.0 mi WSW 4.6 mph - N/A   Scattered Clouds
1:10 PM 81.1 °F 83.2 °F 65.8 °F 60% 30.06 in 10.0 mi SSW 3.5 mph - N/A   Scattered Clouds
1:30 PM 81.9 °F 84.1 °F 66.2 °F 59% 30.05 in 10.0 mi SSE 5.8 mph - N/A   Scattered Clouds
1:50 PM 82.6 °F 85.1 °F 66.7 °F 59% 30.05 in 10.0 mi SE 3.5 mph - N/A   Scattered Clouds
2:10 PM 83.5 °F 86.0 °F 66.7 °F 57% 30.05 in 10.0 mi South 8.1 mph - N/A   Clear
2:30 PM 82.6 °F 84.7 °F 66.0 °F 57% 30.04 in 10.0 mi Calm Calm - N/A   Scattered Clouds
2:50 PM 83.5 °F 86.0 °F 66.6 °F 57% 30.03 in 10.0 mi South 4.6 mph - N/A   Scattered Clouds
3:10 PM 83.1 °F 85.4 °F 66.6 °F 57% 30.01 in 10.0 mi South 4.6 mph - N/A   Clear
3:30 PM 83.5 °F 86.0 °F 66.6 °F 57% 30.01 in 10.0 mi SSE 6.9 mph - N/A   Clear
3:50 PM 82.8 °F 85.3 °F 67.3 °F 59% 30.00 in 10.0 mi SE 5.8 mph - N/A   Clear
4:10 PM 83.3 °F 86.2 °F 67.5 °F 59% 29.98 in 10.0 mi SE 8.1 mph - N/A   Clear
4:30 PM 83.1 °F 85.4 °F 66.4 °F 57% 29.99 in 10.0 mi South 6.9 mph - N/A   Clear
4:50 PM 82.6 °F 85.5 °F 67.8 °F 61% 29.99 in 10.0 mi SE 5.8 mph - N/A   Clear
5:10 PM 82.6 °F 85.3 °F 67.3 °F 60% 29.99 in 10.0 mi South 5.8 mph - N/A   Clear
5:30 PM 82.4 °F 85.0 °F 67.1 °F 60% 29.99 in 10.0 mi SSE 5.8 mph - N/A   Clear
5:50 PM 81.5 °F 84.4 °F 68.4 °F 64% 29.99 in 10.0 mi SSE 4.6 mph - N/A   Clear
6:10 PM 79.0 °F - 68.5 °F 70% 29.99 in 10.0 mi SE 3.5 mph - N/A   Clear
6:30 PM 79.2 °F - 68.5 °F 70% 29.99 in 10.0 mi Calm Calm - N/A   Clear
6:50 PM 79.0 °F - 67.8 °F 69% 30.00 in 10.0 mi ESE 3.5 mph - N/A   Clear
7:10 PM 77.4 °F - 68.0 °F 73% 30.00 in 10.0 mi Calm Calm - N/A   Clear
7:30 PM 76.1 °F - 68.0 °F 76% 30.00 in 10.0 mi Calm Calm - N/A   Clear
7:50 PM 74.1 °F - 68.0 °F 81% 30.01 in 10.0 mi Calm Calm - N/A   Clear
8:10 PM 73.6 °F - 67.6 °F 82% 30.01 in 10.0 mi Calm Calm - N/A   Clear
8:30 PM 73.0 °F - 67.5 °F 83% - 10.0 mi ESE 3.5 mph - N/A   Clear
8:50 PM 73.4 °F - 66.9 °F 80% 30.02 in 10.0 mi ESE 3.5 mph - N/A   Clear
9:10 PM 72.9 °F - 66.6 °F 81% 30.03 in 10.0 mi ESE 3.5 mph - N/A   Clear
9:30 PM 72.9 °F - 66.2 °F 80% 30.03 in 10.0 mi SE 4.6 mph - N/A   Clear
9:50 PM 72.1 °F - 65.5 °F 79% 30.03 in 10.0 mi SE 5.8 mph - N/A   Clear
10:10 PM 71.6 °F - 65.5 °F 81% 30.03 in 10.0 mi SE 5.8 mph - N/A   Clear
10:30 PM 71.2 °F - 65.3 °F 81% 30.03 in 10.0 mi SE 3.5 mph - N/A   Clear
10:50 PM 71.2 °F - 65.3 °F 81% 30.03 in 10.0 mi SE 6.9 mph - N/A   Clear
11:10 PM 71.6 °F - 65.3 °F 80% 30.03 in 10.0 mi SE 6.9 mph - N/A   Clear
11:30 PM 71.4 °F - 65.3 °F 81% 30.03 in 10.0 mi SSE 5.8 mph - N/A   Clear
11:50 PM 69.8 °F - 64.4 °F 83% 30.04 in 10.0 mi SSE 3.5 mph - N/A   Clear